YO8KGT-13 Weather Reports


time (UTC)temp
C
wind
direction
speed
KPH
gust
KPH
rain 1hr
cm
rain 24hr
cm
rain mn
cm
humidity
%
barometer
mb
20260506141435 28 112 6.4 6.4 0.00 0.00 0.00 25 941.0
20260506140926 28 68 3.2 6.4 0.00 0.00 0.00 25 941.0
20260506135925 29 0 0.0 6.4 0.00 0.00 0.00 23 941.0
20260506135445 29 135 0.0 4.8 0.00 0.00 0.00 23 941.0
20260506134926 29 0 1.6 4.8 0.00 0.00 0.00 23 941.0
20260506134426 30 338 0.0 6.4 0.00 0.00 0.00 23 941.0
20260506131431 31 22 0.0 8.0 0.00 0.00 0.00 22 941.0
20260506130936 31 248 3.2 8.0 0.00 0.00 0.00 22 941.0
20260506130427 31 0 0.0 4.8 0.00 0.00 0.00 22 941.0
20260506124428 31 248 3.2 4.8 0.00 0.00 0.00 21 941.0
20260506123927 32 0 4.8 11.3 0.00 0.00 0.00 21 941.0
20260506123427 32 248 3.2 11.3 0.00 0.00 0.00 21 941.0
20260506122425 32 270 0.0 8.0 0.00 0.00 0.00 21 941.0
20260506121425 32 90 3.2 4.8 0.00 0.00 0.00 21 941.0
20260506120926 32 90 4.8 4.8 0.00 0.00 0.00 21 942.0
20260506120433 32 270 0.0 4.8 0.00 0.00 0.00 21 941.0
20260506115926 32 270 0.0 16.1 0.00 0.00 0.00 21 942.0
20260506114943 32 292 1.6 16.1 0.00 0.00 0.00 21 942.0
20260506114439 32 270 1.6 9.7 0.00 0.00 0.00 21 942.0
20260506113925 32 90 4.8 9.7 0.00 0.00 0.00 21 942.0
20260506113426 32 68 3.2 6.4 0.00 0.00 0.00 22 942.0
20260506112425 33 90 1.6 3.2 0.00 0.00 0.00 22 942.0
20260506111425 33 0 0.0 3.2 0.00 0.00 0.00 22 942.0
20260506110925 33 338 0.0 3.2 0.00 0.00 0.00 22 942.0
20260506110432 33 338 0.0 3.2 0.00 0.00 0.00 22 942.0
20260506105933 33 22 3.2 3.2 0.00 0.00 0.00 23 942.0
20260506104010 33 45 4.8 6.4 0.00 0.00 0.00 24 942.0
20260506103430 33 270 4.8 6.4 0.00 0.00 0.00 24 942.0
20260506100924 32 90 0.0 4.8 0.00 0.00 0.00 25 943.0
20260506095937 31 338 3.2 6.4 0.00 0.00 0.00 25 943.0
20260506095500 31 338 0.0 4.8 0.00 0.00 0.00 26 943.0
20260506094929 31 0 0.0 4.8 0.00 0.00 0.00 26 943.0
20260506094425 31 292 0.0 4.8 0.00 0.00 0.00 26 943.0
20260506093428 30 158 0.0 4.8 0.00 0.00 0.00 27 943.0
20260506092927 30 0 0.0 4.8 0.00 0.00 0.00 28 943.0
20260506092425 29 270 3.2 4.8 0.00 0.00 0.00 29 943.0
20260506090950 28 270 1.6 4.8 0.00 0.00 0.00 30 943.0
20260506090425 28 248 4.8 4.8 0.00 0.00 0.00 30 943.0
20260506085926 28 315 0.0 3.2 0.00 0.00 0.00 30 943.0
20260506083926 27 338 0.0 3.2 0.00 0.00 0.00 32 943.0
20260506083436 27 315 0.0 3.2 0.00 0.00 0.00 32 943.0
20260506082925 27 315 0.0 3.2 0.00 0.00 0.00 33 943.0
20260506082439 27 338 0.0 3.2 0.00 0.00 0.00 34 943.0
20260506081925 26 270 0.0 3.2 0.00 0.00 0.00 35 943.0
20260506080925 26 0 0.0 0.0 0.00 0.00 0.00 37 943.0
20260506080426 26 22 0.0 0.0 0.00 0.00 0.00 37 943.0
20260506061926 18 338 0.0 0.0 0.00 0.00 0.00 54 944.0
20260506061425 17 0 0.0 0.0 0.00 0.00 0.00 55 943.0
20260506050445 13 248 0.0 1.6 0.00 0.00 0.00 61 943.0
20260506044925 12 248 0.0 0.0 0.00 0.00 0.00 61 943.0
20260506043427 12 248 0.0 0.0 0.00 0.00 0.00 61 943.0
20260506041430 12 248 0.0 0.0 0.00 0.00 0.00 61 943.0
20260506040924 12 248 0.0 0.0 0.00 0.00 0.00 61 943.0
20260506035933 11 248 0.0 0.0 0.00 0.00 0.00 61 943.0
20260506035426 11 248 0.0 0.0 0.00 0.00 0.00 61 943.0
20260506034425 11 248 0.0 0.0 0.00 0.00 0.00 62 943.0
20260506031430 10 248 0.0 0.0 0.00 0.00 0.00 62 943.0
20260506030931 10 248 0.0 0.0 0.00 0.00 0.00 62 943.0
20260506030425 10 248 0.0 0.0 0.00 0.00 0.00 62 943.0
20260506024925 10 248 0.0 0.0 0.00 0.00 0.00 61 943.0
20260506024429 10 248 0.0 0.0 0.00 0.00 0.00 61 943.0
20260506023925 10 248 0.0 0.0 0.00 0.00 0.00 61 943.0
20260506015425 10 248 0.0 0.0 0.00 0.00 0.00 60 943.0
20260506014931 10 248 0.0 0.0 0.00 0.00 0.00 59 943.0
20260506014425 10 248 0.0 0.0 0.00 0.00 0.00 59 943.0
20260506012426 11 248 0.0 0.0 0.00 0.00 0.00 58 943.0
20260506011428 11 248 0.0 0.0 0.00 0.00 0.00 57 943.0
20260506010428 11 248 0.0 0.0 0.00 0.00 0.00 57 943.0
20260506005924 11 248 0.0 0.0 0.00 0.00 0.00 57 943.0
20260506005426 11 248 0.0 0.0 0.00 0.00 0.00 57 943.0
20260506004928 11 0 0.0 0.0 0.00 0.00 0.00 57 943.0
20260506004432 11 248 0.0 0.0 0.00 0.00 0.00 56 942.0
20260506003924 11 248 0.0 0.0 0.00 0.00 0.00 56 943.0
20260506003426 12 248 0.0 3.2 0.00 0.00 0.00 56 943.0
20260506002438 12 248 0.0 3.2 0.00 0.00 0.00 55 942.0
20260506001925 12 248 0.0 0.0 0.00 0.00 0.00 55 943.0
20260506001426 12 248 0.0 0.0 0.00 0.00 0.00 55 943.0
20260506000924 12 248 0.0 0.0 0.00 0.00 0.00 55 943.0
20260506000426 12 248 0.0 1.6 0.00 0.00 0.00 55 942.0
20260505235924 12 248 0.0 1.6 0.00 0.00 0.00 55 943.0
20260505234427 12 248 0.0 0.0 0.00 0.00 0.00 55 942.0
20260505233426 12 248 0.0 4.8 0.00 0.00 0.00 56 943.0
20260505232924 12 248 0.0 4.8 0.00 0.00 0.00 56 942.0
20260505232440 12 248 0.0 4.8 0.00 0.00 0.00 55 942.0
20260505231941 12 248 3.2 4.8 0.00 0.00 0.00 55 942.0
20260505230925 12 0 0.0 4.8 0.00 0.00 0.00 54 942.0
20260505225926 12 270 0.0 6.4 0.00 0.00 0.00 54 942.0
20260505225426 12 270 1.6 6.4 0.00 0.00 0.00 53 942.0
20260505224928 12 270 3.2 6.4 0.00 0.00 0.00 53 942.0
20260505224425 12 292 4.8 4.8 0.00 0.00 0.00 52 943.0
20260505223934 12 292 4.8 4.8 0.00 0.00 0.00 52 942.0
20260505223432 12 292 3.2 3.2 0.00 0.00 0.00 51 943.0
20260505222928 13 292 0.0 3.2 0.00 0.00 0.00 51 942.0
20260505221946 13 292 0.0 4.8 0.00 0.00 0.00 50 942.0
20260505221502 13 292 3.2 4.8 0.00 0.00 0.00 50 942.0
20260505220429 13 292 0.0 3.2 0.00 0.00 0.00 49 943.0
20260505213925 14 292 0.0 0.0 0.00 0.00 0.00 47 942.0
20260505213428 14 292 0.0 0.0 0.00 0.00 0.00 47 942.0
20260505212955 14 292 0.0 0.0 0.00 0.00 0.00 46 942.0
20260505212425 14 292 0.0 0.0 0.00 0.00 0.00 46 943.0
20260505211924 14 292 0.0 0.0 0.00 0.00 0.00 45 942.0
20260505211435 14 292 0.0 0.0 0.00 0.00 0.00 45 942.0
20260505210925 15 292 0.0 0.0 0.00 0.00 0.00 44 942.0
20260505210424 15 292 0.0 0.0 0.00 0.00 0.00 44 942.0
20260505205448 15 292 0.0 0.0 0.00 0.00 0.00 43 942.0
20260505204924 15 292 0.0 0.0 0.00 0.00 0.00 42 942.0
20260505204447 15 292 0.0 1.6 0.00 0.00 0.00 42 942.0
20260505203929 16 292 0.0 1.6 0.00 0.00 0.00 42 942.0
20260505195943 16 292 0.0 0.0 0.00 0.00 0.00 39 942.0
20260505195425 17 292 0.0 0.0 0.00 0.00 0.00 39 942.0
20260505194943 17 292 0.0 0.0 0.00 0.00 0.00 38 942.0
20260505194425 17 292 0.0 0.0 0.00 0.00 0.00 38 942.0
20260505192924 17 292 0.0 0.0 0.00 0.00 0.00 37 942.0
20260505192429 17 292 0.0 0.0 0.00 0.00 0.00 37 942.0
20260505191925 17 292 0.0 0.0 0.00 0.00 0.00 36 942.0
20260505191433 17 292 0.0 0.0 0.00 0.00 0.00 36 942.0
20260505190924 17 292 0.0 0.0 0.00 0.00 0.00 35 942.0
20260505185928 18 292 0.0 0.0 0.00 0.00 0.00 34 942.0
20260505185425 18 292 0.0 0.0 0.00 0.00 0.00 34 942.0
20260505184924 18 292 0.0 0.0 0.00 0.00 0.00 33 942.0
20260505183925 18 292 0.0 0.0 0.00 0.00 0.00 33 942.0
20260505183425 19 292 0.0 0.0 0.00 0.00 0.00 33 942.0
20260505182428 19 292 0.0 1.6 0.00 0.00 0.00 32 942.0
20260505181930 20 292 0.0 1.6 0.00 0.00 0.00 32 942.0
20260505181429 20 292 0.0 1.6 0.00 0.00 0.00 32 942.0
20260505180925 20 292 0.0 1.6 0.00 0.00 0.00 31 942.0
20260505175938 20 292 0.0 3.2 0.00 0.00 0.00 31 942.0
20260505175425 20 292 3.2 3.2 0.00 0.00 0.00 31 942.0
20260505174447 21 292 0.0 4.8 0.00 0.00 0.00 31 941.0
20260505173924 21 292 0.0 4.8 0.00 0.00 0.00 30 941.0
20260505173424 21 292 4.8 4.8 0.00 0.00 0.00 30 941.0
20260505172425 21 315 0.0 1.6 0.00 0.00 0.00 30 941.0
20260505170925 22 315 0.0 1.6 0.00 0.00 0.00 29 941.0
20260505170428 22 22 0.0 1.6 0.00 0.00 0.00 29 941.0
20260505165437 22 22 0.0 0.0 0.00 0.00 0.00 28 941.0
20260505164925 22 22 0.0 0.0 0.00 0.00 0.00 28 941.0
20260505164424 23 22 0.0 0.0 0.00 0.00 0.00 27 941.0
20260505163924 23 22 0.0 0.0 0.00 0.00 0.00 26 941.0
20260505162925 23 22 0.0 0.0 0.00 0.00 0.00 25 941.0
20260505161925 23 22 0.0 3.2 0.00 0.00 0.00 24 941.0
20260505161430 23 22 0.0 3.2 0.00 0.00 0.00 24 941.0
20260505160930 23 22 0.0 3.2 0.00 0.00 0.00 23 941.0
20260505160425 24 22 0.0 0.0 0.00 0.00 0.00 23 941.0
20260505152924 25 68 0.0 1.6 0.00 24.97 0.00 21 941.0
20260505152423 25 68 0.0 1.6 0.00 0.00 0.00 21 941.0
20260505151425 25 45 0.0 1.6 0.00 0.00 0.00 21 941.0
20260505150931 26 45 0.0 1.6 0.00 0.00 0.00 21 941.0